Waarnemingen

Advertentie
Mijn weer
Kempten, Duitsland (10946): temperatuur & dauwpunt: 14.01.2019 12:00:00 - 20.01.2019 12:00:00 (CET)Kempten, Duitsland (10946): temperatuur 5cm & temperatuur -5cm: 14.01.2019 12:00:00 - 20.01.2019 12:00:00 (CET)Kempten, Duitsland (10946): temperatuur -20cm & temperatuur -100cm: 14.01.2019 12:00:00 - 20.01.2019 12:00:00 (CET)Kempten, Duitsland (10946): windsnelheid & windstoten: 14.01.2019 12:00:00 - 20.01.2019 12:00:00 (CET)Kempten, Duitsland (10946): windrichting: 14.01.2019 12:00:00 - 20.01.2019 12:00:00 (CET)Kempten, Duitsland (10946): luchtdruk: 14.01.2019 12:00:00 - 20.01.2019 12:00:00 (CET)Kempten, Duitsland (10946): zicht: 14.01.2019 12:00:00 - 20.01.2019 12:00:00 (CET)Kempten, Duitsland (10946): Zonneschijnduur: 14.01.2019 12:00:00 - 20.01.2019 12:00:00 (CET)Kempten, Duitsland (10946): neerslag: 14.01.2019 12:00:00 - 20.01.2019 12:00:00 (CET)
Datum & Tijd tt [°C] td [°C] tt 5cm [°C] tt -5cm [°C] tt -20cm [°C] tt -100cm [°C] ff [km/u] ff [kn] fx [km/u] fx [kn] dd ppp [hPa] vv [km] sd [min] rr [mm]
20.01.2019 12:00:00 -2,6 -8,5 0,1 0,4 1,0 4,7 4 2 7 4 WNW 1016,3 14 0 0,0
20.01.2019 11:00:00 -4,3 -8,4 0,1 0,3 1,0 4,7 2 1 6 3 ZO 1016,8 10 0 0,0
20.01.2019 10:00:00 -6,8 -9,1 0,2 0,3 1,0 4,7 3 2 6 3 NW 1017,2 18 0 0,0
20.01.2019 09:00:00 -9,6 -11,3 0,2 0,3 1,0 4,7 3 2 5 3 OZO 1017,8 16 0 0,0
20.01.2019 08:00:00 -11,2 -12,7 0,2 0,3 1,0 4,7 3 2 7 4 ZW 1017,8 26 0 0,0
20.01.2019 07:00:00 -12,3 -14,3 0,2 0,3 1,0 4,7 5 3 7 4 Z 1017,9 18 0 0,0
20.01.2019 06:00:00 -12,6 -14,5 0,2 0,3 1,0 4,7 3 2 8 4 ZO 1018,0 22 0 0,0
20.01.2019 05:00:00 -11,3 -12,7 0,2 0,3 1,0 4,7 4 2 8 4 O 1017,6 16 0 0,0
20.01.2019 04:00:00 -11,7 -12,8 0,2 0,3 1,0 4,7 3 2 7 4 Z 1017,7 19 0 0,0
20.01.2019 03:00:00 -13,1 -15,0 0,2 0,3 1,0 4,7 0 0 5 3 N 1018,3 19 0 0,0
20.01.2019 02:00:00 -13,4 -15,3 0,2 0,3 1,0 4,7 3 2 8 4 O 1018,5 16 0 0,0
20.01.2019 01:00:00 -13,6 -15,5 0,3 0,3 1,0 4,7 6 4 10 5 OZO 1018,7 14 0 0,0
20.01.2019 00:00:00 -13,4 -15,2 0,3 0,3 1,0 4,7 6 3 9 5 OZO 1019,1 13 0 0,0
19.01.2019 23:00:00 -13,1 -14,8 0,3 0,3 1,0 4,7 8 4 10 5 OZO 1018,9 8 0 0,0
19.01.2019 22:00:00 -12,6 -14,4 0,3 0,3 1,0 4,7 7 4 9 5 O 1018,8 10 0 0,0
19.01.2019 21:00:00 -11,5 -13,5 0,3 0,3 1,0 4,7 5 3 8 5 O 1018,3 12 0 0,0
19.01.2019 20:00:00 -10,4 -12,7 0,3 0,3 1,0 4,7 5 3 9 5 OZO 1018,0 13 0 0,0
19.01.2019 19:00:00 -9,0 -11,8 0,3 0,3 1,0 4,7 5 3 8 5 O 1017,6 9 0 0,0
19.01.2019 18:00:00 -7,0 -10,5 0,2 0,3 1,0 4,7 4 2 6 3 O 1016,9 18 0 0,0
19.01.2019 17:00:00 -4,6 -9,7 0,2 0,3 1,0 4,7 4 2 6 4 O 1016,2 25 42 0,0
19.01.2019 16:00:00 -2,5 -9,4 0,3 0,3 1,0 4,7 4 2 9 5 N 1015,6 12 44 0,0
19.01.2019 15:00:00 -2,1 -10,2 0,3 0,3 1,0 4,7 4 2 8 4 N 1015,9 7 60 0,0
19.01.2019 14:00:00 -2,6 -11,0 0,3 0,3 1,0 4,7 4 2 6 4 OZO 1016,6 3,7 60 0,0
19.01.2019 13:00:00 -3,1 -11,5 0,3 0,3 1,0 4,7 4 2 8 5 ZO 1017,3 6 60 0,0
19.01.2019 12:00:00 -5,0 -11,0 0,3 0,3 1,0 4,7 4 2 9 5 Z 1018,5 13 60 0,0
19.01.2019 11:00:00 -6,6 -11,5 0,3 0,3 1,0 4,7 0 0 10 5 N 1019,6 4,6 60 0,0
19.01.2019 10:00:00 -10,9 -13,6 0,3 0,3 1,0 4,7 8 4 11 6 OZO 1020,9 7 54 0,0
19.01.2019 09:00:00 -13,1 -15,1 0,3 0,3 1,0 4,7 9 5 12 7 OZO 1021,6 16 0 0,0
19.01.2019 08:00:00 -13,4 -15,1 0,3 0,3 1,0 4,7 9 5 12 6 OZO 1021,7 16 0 0,0
19.01.2019 07:00:00 -13,6 -15,3 0,3 0,3 1,0 4,7 9 5 12 6 OZO 1021,8 10 0 0,0
19.01.2019 06:00:00 -12,9 -14,5 0,3 0,3 1,0 4,7 8 5 13 7 O 1021,6 16 0 0,0
19.01.2019 05:00:00 -11,4 -12,9 0,3 0,3 0,9 4,7 8 4 10 6 O 1021,3 18 0 0,0
19.01.2019 04:00:00 -11,0 -12,6 0,3 0,3 0,9 4,7 6 3 9 5 OZO 1021,5 17 0 0,0
19.01.2019 03:00:00 -9,9 -11,1 0,3 0,3 0,9 4,7 5 3 9 5 OZO 1021,2 17 0 0,0
19.01.2019 02:00:00 -10,0 -11,3 0,3 0,3 0,9 4,7 3 1 6 3 ZO 1021,0 12 0 0,0
19.01.2019 01:00:00 -7,8 -9,0 0,3 0,3 0,9 4,7 0 0 3 2 N 1020,3 14 0 0,0
19.01.2019 00:00:00 -6,5 -7,9 0,3 0,3 0,9 4,7 2 1 7 4 OZO 1020,3 15 0 0,0
18.01.2019 23:00:00 -5,8 -7,6 0,3 0,3 0,9 4,7 3 2 10 5 Z 1020,3 20 0 0,0
18.01.2019 22:00:00 -5,0 -7,5 0,3 0,3 0,9 4,7 3 2 12 6 O 1020,5 19 0 0,0
18.01.2019 21:00:00 -4,2 -7,6 0,3 0,3 0,9 4,7 4 2 19 10 NNO 1020,3 19 0 0,0
18.01.2019 20:00:00 -4,7 -8,5 0,3 0,3 0,9 4,7 8 4 13 7 NO 1021,0 24 0 0,0
18.01.2019 19:00:00 -5,8 -8,8 0,3 0,3 0,9 4,7 4 2 10 5 NNO 1021,5 23 0 0,0
18.01.2019 18:00:00 -3,5 -8,9 0,3 0,3 0,9 4,7 8 4 10 5 NO 1021,1 28 0 0,0
18.01.2019 17:00:00 -2,1 -8,5 0,3 0,3 0,9 4,7 3 2 11 6 NO 1020,8 25 30 0,0
18.01.2019 16:00:00 -0,6 -8,6 0,3 0,3 0,9 4,7 6 4 12 7 NO 1020,4 16 47 0,0
18.01.2019 15:00:00 -0,2 -8,0 0,3 0,3 0,9 4,7 6 4 12 7 N 1020,1 8 56 0,0
18.01.2019 14:00:00 0,5 -10,0 0,2 0,3 0,9 4,7 4 2 11 6 NO 1019,8 8 60 0,0
18.01.2019 13:00:00 0,2 -8,9 0,3 0,3 0,9 4,7 7 4 13 7 ZO 1020,4 2,9 60 0,0
18.01.2019 12:00:00 -0,3 -7,1 0,3 0,3 0,9 4,8 5 3 12 6 Z 1021,1 10 37 0,0
18.01.2019 11:00:00 -1,5 -6,6 0,3 0,2 0,9 4,8 8 4 16 9 Z 1021,9 8 47 0,0
18.01.2019 10:00:00 -2,7 -6,1 0,3 0,2 0,9 4,8 4 2 10 5 ZZO 1022,1 15 3 0,0
18.01.2019 09:00:00 -3,2 -6,2 0,3 0,3 0,9 4,8 3 2 11 6 Z 1021,6 29 0 0,0
18.01.2019 08:00:00 -2,0 -7,2 0,3 0,3 0,9 4,8 10 5 18 10 W 1020,6 41 0 0,0
18.01.2019 07:00:00 -2,3 -6,3 0,3 0,3 0,9 4,8 6 3 23 13 W 1020,2 28 0 0,0
18.01.2019 06:00:00 -1,8 -5,3 0,3 0,3 0,9 4,8 10 5 20 11 WNW 1019,1 29 0 0,0
18.01.2019 05:00:00 -1,4 -4,5 0,3 0,3 0,9 4,8 9 5 19 10 W 1018,2 55 0 0,0
18.01.2019 04:00:00 -0,9 -4,3 0,3 0,3 0,9 4,8 8 4 31 17 WZW 1017,3 54 0 0,5
18.01.2019 03:00:00 -1,7 -2,5 0,3 0,3 0,9 4,8 12 6 32 17 WNW 1017,0 1,3 0 1,1
18.01.2019 02:00:00 0,9 -3,1 0,3 0,3 0,9 4,8 11 6 29 16 ZZW 1014,9 61 0 0,0
18.01.2019 01:00:00 0,9 -3,1 0,3 0,3 0,9 4,8 15 8 35 19 WZW 1015,2 61 0 0,0
18.01.2019 00:00:00 0,9 -3,0 0,2 0,3 0,9 4,8 11 6 38 20 ZW 1015,1 62 0 0,0
17.01.2019 23:00:00 1,4 -2,8 0,3 0,3 1,0 4,8 15 8 34 19 W 1014,5 59 0 0,0
17.01.2019 22:00:00 1,4 -2,4 0,3 0,3 1,0 4,8 16 9 35 19 W 1014,1 63 0 0,0
17.01.2019 21:00:00 1,4 -1,7 0,3 0,3 1,0 4,8 16 9 44 24 WZW 1013,4 13 0 0,2
17.01.2019 20:00:00 1,6 -0,9 0,3 0,3 1,0 4,8 20 11 45 24 W 1013,0 3,2 0 0,3
17.01.2019 19:00:00 1,9 -0,2 0,3 0,3 1,0 4,8 12 6 36 20 ZW 1012,4 18 0 0,1
17.01.2019 18:00:00 2,4 -0,4 0,3 0,3 1,0 4,8 12 6 34 18 ZW 1011,9 27 0 0,4
17.01.2019 17:00:00 1,8 0,2 0,2 0,3 1,0 4,8 7 4 24 13 Z 1011,5 13 0 0,2
17.01.2019 16:00:00 2,3 0,0 0,2 0,3 1,0 4,8 9 5 31 17 ZZO 1010,7 23 0 0,1
17.01.2019 15:00:00 2,4 0,1 0,2 0,3 1,0 4,8 14 8 45 25 W 1010,0 9 0 0,6
17.01.2019 14:00:00 4,3 0,8 0,2 0,3 1,0 4,8 22 12 47 25 W 1008,8 11 0 0,0
17.01.2019 13:00:00 5,9 -0,8 0,2 0,3 1,0 4,8 19 10 37 20 W 1008,1 6 8 0,0
17.01.2019 12:00:00 6,2 -2,5 0,2 0,3 1,0 4,8 12 7 37 20 W 1008,6 7 47 0,0
17.01.2019 11:00:00 6,0 -2,8 0,2 0,3 1,0 4,8 8 4 14 7 ZZW 1009,2 14 15 0,0
17.01.2019 10:00:00 5,2 -3,1 0,2 0,3 1,0 4,8 5 3 22 12 ZW 1009,3 29 39 0,0
17.01.2019 09:00:00 2,7 -3,3 0,2 0,3 1,0 4,8 8 5 21 12 ZZW 1010,2 25 8 0,0
17.01.2019 08:00:00 1,4 -3,2 0,2 0,3 1,0 4,8 5 3 21 11 Z 1010,9 55 0 0,0
17.01.2019 07:00:00 4,2 -1,7 0,2 0,3 0,9 4,8 9 5 31 17 ZW 1010,5 41 0 0,0
17.01.2019 06:00:00 4,5 -0,8 0,2 0,3 0,9 4,8 15 8 53 28 W 1010,8 32 0 0,0
17.01.2019 05:00:00 3,9 -1,3 0,2 0,3 0,9 4,8 15 8 35 19 W 1011,2 35 0 0,0
17.01.2019 04:00:00 4,1 -3,0 0,2 0,3 0,9 4,8 13 7 27 14 W 1011,3 65 0 0,0
17.01.2019 03:00:00 2,0 -3,4 0,2 0,3 0,9 4,8 6 4 18 10 WZW 1011,8 52 0 0,0
17.01.2019 02:00:00 -1,0 -4,3 0,2 0,3 0,9 4,8 5 3 12 6 OZO 1012,5 52 0 0,0
17.01.2019 01:00:00 1,1 -3,3 0,2 0,3 0,9 4,8 6 4 16 9 Z 1012,0 63 0 0,0
17.01.2019 00:00:00 0,4 -3,1 0,2 0,3 0,9 4,8 10 6 16 9 Z 1012,7 49 0 0,0
16.01.2019 23:00:00 0,2 -3,4 0,2 0,3 0,9 4,8 11 6 20 11 Z 1012,9 48 0 0,0
16.01.2019 22:00:00 -0,9 -3,5 0,2 0,3 0,9 4,8 8 4 13 7 Z 1013,7 38 0 0,0
16.01.2019 21:00:00 -0,7 -3,3 0,1 0,3 0,9 4,8 7 4 16 8 Z 1013,8 33 0 0,0
16.01.2019 20:00:00 -0,7 -3,0 0,1 0,3 0,9 4,8 8 4 16 8 Z 1013,8 32 0 0,0
16.01.2019 19:00:00 -0,1 -2,3 0,1 0,3 0,9 4,8 6 4 13 7 ZZO 1013,5 36 0 0,0
16.01.2019 18:00:00 -0,6 -3,3 0,1 0,3 0,9 4,8 7 4 11 6 OZO 1014,3 31 0 0,0
16.01.2019 17:00:00 1,5 -3,3 0,1 0,3 0,9 4,8 6 3 10 5 ZZO 1014,0 23 30 0,0
16.01.2019 16:00:00 6,7 -4,2 0,1 0,3 0,9 4,8 8 5 15 8 ZZW 1012,7 19 60 0,0
16.01.2019 15:00:00 5,4 -3,6 0,1 0,2 0,9 4,8 5 3 10 5 OZO 1013,7 7 60 0,0
16.01.2019 14:00:00 4,5 -4,0 0,1 0,2 0,9 4,8 4 2 15 8 ZZO 1014,5 14 60 0,0
16.01.2019 13:00:00 2,9 -4,0 0,1 0,2 0,9 4,8 7 4 16 9 Z 1015,8 4,6 60 0,0
16.01.2019 12:00:00 0,8 -4,9 0,1 0,2 0,9 4,8 10 6 18 10 Z 1017,5 4,5 60 0,0
16.01.2019 11:00:00 -2,1 -6,1 0,1 0,2 0,9 4,8 8 4 15 8 ZZW 1019,1 4,9 60 0,0
16.01.2019 10:00:00 -4,0 -7,0 0,1 0,2 0,9 4,8 4 2 16 8 Z 1019,9 9 60 0,0
16.01.2019 09:00:00 -7,0 -8,4 0,1 0,2 0,9 4,8 8 5 15 8 OZO 1021,1 16 8 0,0
16.01.2019 08:00:00 -6,9 -7,8 0,1 0,2 0,9 4,8 8 5 16 9 OZO 1021,4 19 0 0,0
16.01.2019 07:00:00 -7,5 -8,7 0,1 0,2 0,9 4,8 7 4 9 5 OZO 1022,1 20 0 0,0
16.01.2019 06:00:00 -5,8 -6,7 0,0 0,2 0,9 4,8 4 2 12 6 O 1021,9 18 0 0,0
16.01.2019 05:00:00 -6,1 -7,0 0,1 0,2 0,9 4,9 8 5 16 9 ZZO 1022,4 14 0 0,0
16.01.2019 04:00:00 -5,1 -6,1 0,0 0,2 0,9 4,9 6 3 12 6 ZO 1022,8 23 0 0,0
16.01.2019 03:00:00 -4,6 -6,0 0,0 0,2 0,9 4,9 5 3 11 6 ZZO 1023,4 26 0 0,0
16.01.2019 02:00:00 -3,5 -4,9 0,1 0,2 0,9 4,9 4 2 11 6 Z 1023,1 30 0 0,0
16.01.2019 01:00:00 -2,9 -5,0 0,0 0,2 0,9 4,9 7 4 11 6 Z 1023,4 30 0 0,0
16.01.2019 00:00:00 -2,9 -4,8 0,1 0,2 0,9 4,9 5 3 8 5 ZZO 1023,8 27 0 0,0
15.01.2019 23:00:00 -1,5 -4,0 0,0 0,2 0,9 4,9 6 3 11 6 Z 1023,6 27 0 0,0
15.01.2019 22:00:00 -0,1 -3,7 0,1 0,2 0,9 4,9 6 4 16 9 WZW 1023,4 35 0 0,0
15.01.2019 21:00:00 0,5 -3,2 0,1 0,2 0,9 4,9 7 4 16 9 ZW 1023,3 33 0 0,0
15.01.2019 20:00:00 0,3 -2,8 0,1 0,2 0,9 4,9 9 5 16 9 ZW 1023,9 27 0 0,0
15.01.2019 19:00:00 0,0 -2,9 0,1 0,2 0,9 4,9 6 3 14 7 ZW 1024,0 31 0 0,0
15.01.2019 18:00:00 0,9 -2,8 0,1 0,2 0,9 4,9 8 4 18 10 ZW 1023,8 34 0 0,0
15.01.2019 17:00:00 1,7 -2,6 0,1 0,2 0,9 4,9 10 5 20 11 W 1023,5 32 31 0,0
15.01.2019 16:00:00 2,2 -3,0 0,1 0,2 0,9 4,9 8 5 21 11 WZW 1023,4 19 7 0,0
15.01.2019 15:00:00 3,1 -3,7 0,1 0,2 0,9 4,9 8 4 31 17 W 1022,8 10 48 0,0
15.01.2019 14:00:00 2,7 -3,3 0,1 0,2 0,9 4,9 14 8 28 15 ZW 1023,3 7 23 0,0
15.01.2019 13:00:00 2,9 -4,8 0,1 0,2 0,9 4,9 13 7 24 13 ZW 1023,6 7 17 0,0
15.01.2019 12:00:00 1,3 -4,9 0,1 0,2 0,9 4,9 11 6 19 10 ZW 1024,3 10 0 0,0
15.01.2019 11:00:00 0,5 -4,7 0,1 0,2 0,9 4,9 9 5 21 11 ZW 1025,1 14 0 0,0
15.01.2019 10:00:00 -0,2 -5,3 0,1 0,2 0,9 4,9 10 6 17 9 ZW 1025,8 31 0 0,0
15.01.2019 09:00:00 -0,4 -4,9 0,1 0,2 0,9 4,9 13 7 23 12 ZZW 1025,7 49 0 0,0
15.01.2019 08:00:00 -0,5 -4,0 0,1 0,2 0,9 4,9 8 5 27 15 ZW 1025,6 38 0 0,0
15.01.2019 07:00:00 -0,2 -4,5 0,0 0,2 0,9 4,9 11 6 24 13 WZW 1025,1 43 0 0,0
15.01.2019 06:00:00 -0,1 -3,9 0,1 0,2 0,9 4,9 11 6 27 14 W 1024,6 43 0 0,0
15.01.2019 05:00:00 -0,1 -3,6 0,1 0,2 0,9 4,9 11 6 26 14 W 1024,3 31 0 0,0
15.01.2019 04:00:00 -0,3 -3,0 0,1 0,2 0,9 4,9 10 5 25 13 W 1024,1 8 0 0,1
15.01.2019 03:00:00 -0,2 -3,9 0,1 0,2 0,9 4,9 13 7 22 12 W 1023,7 38 0 0,0
15.01.2019 02:00:00 -0,4 -3,5 0,1 0,2 0,9 4,9 3 2 16 9 WZW 1023,2 37 0 0,0
15.01.2019 01:00:00 -0,3 -3,8 0,1 0,2 0,9 4,9 8 4 21 11 W 1022,6 42 0 0,0
15.01.2019 00:00:00 -0,3 -3,6 0,1 0,2 0,9 4,9 9 5 22 12 W 1022,2 36 0 0,0
14.01.2019 23:00:00 -0,5 -3,4 0,1 0,2 0,9 4,9 9 5 25 14 WNW 1021,4 40 0 0,0
14.01.2019 22:00:00 -0,3 -2,9 0,1 0,2 0,9 4,9 9 5 18 10 W 1020,8 33 0 0,0
14.01.2019 21:00:00 -0,3 -2,6 0,1 0,2 0,9 4,9 6 3 17 9 W 1020,4 28 0 0,0
14.01.2019 20:00:00 -0,6 -2,5 0,1 0,2 0,9 4,9 6 4 23 12 W 1019,8 27 0 0,0
14.01.2019 19:00:00 -0,6 -2,0 0,1 0,2 0,9 4,9 11 6 37 20 NW 1019,0 25 0 0,2
14.01.2019 18:00:00 -0,1 -0,8 0,1 0,2 0,9 4,9 16 8 44 24 WNW 1017,7 1,3 0 1,9
14.01.2019 17:00:00 2,1 -0,8 0,1 0,2 0,9 4,9 21 12 50 27 W 1014,3 8 0 0,0
14.01.2019 16:00:00 2,4 -0,9 0,1 0,2 0,9 4,9 18 10 49 26 W 1013,8 21 0 0,1
14.01.2019 15:00:00 1,9 -0,3 0,1 0,2 0,9 4,9 23 13 42 23 W 1013,2 7 0 0,4
14.01.2019 14:00:00 2,2 -0,4 0,1 0,2 0,9 4,9 14 7 46 25 W 1012,6 14 0 0,0
14.01.2019 13:00:00 2,0 0,0 0,1 0,2 0,9 4,9 16 9 38 21 W 1012,9 14 0 0,0
14.01.2019 12:00:00 2,3 -0,8 0,1 0,2 0,9 4,9 13 7 36 19 W 1012,7 11 0 0,2

tt = temperatuur
td = dauwpunt
tt 5cm = temperatuur 5cm
tt -5cm = temperatuur -5cm
tt -20cm = temperatuur -20cm
tt -100cm = temperatuur -100cm
ff = windsnelheid
fx = windstoten
dd = windrichting
ppp = luchtdruk
vv = zicht
sd = Zonneschijnduur
rr = neerslag

Weerstations in de omgeving